[[{"header":{"parameterUnit":"m.s-1","parameterCategory":1,"la1":30.2991,"la2":30.254,"lo1":-89.0895,"lo2":-89.0444,"dy":0.0017,"dx":0.0017,"nx":28,"ny":28,"refTime":"2024-10-01T09:00:00:Z","depth":0,"parameterNumber":2,"parameterNumberName":"U-component_of_WINDS"},"data":[0,0,0,0,0,0,0,0,0,0,0,0,0,0,0,0,0,0,0,0,0,0,0,0,0,0,0,0,0,0,0,0,0,0,0,0,0,0,0,0,0,0,0,0,0,0,0,0,0,0,0,0,0,0,0,0,0,0,-1.258,-1.2581,0,-1.2656,-1.2657,-1.2658,-1.2604,-1.2602,-1.2599,-1.2597,-1.2678,-1.2682,-1.2687,0,0,0,0,0,0,0,0,0,0,0,0,0,-1.2391,-1.2394,-1.258,-1.2581,-1.2582,-1.2656,-1.2657,-1.2658,-1.2605,-1.2602,-1.2599,-1.2596,-1.2677,-1.2682,-1.2687,0,0,0,0,0,0,0,0,0,0,0,0,0,-1.2471,-1.2396,-1.258,-1.2564,-1.2563,-1.2656,-1.2657,-1.2658,-1.2605,-1.2602,-1.2598,-1.2595,-1.2675,-1.2681,-1.2688,-1.2801,0,0,-1.2708,-1.2711,0,0,0,0,0,0,0,0,-1.2466,-1.2478,-1.2565,-1.2565,-1.2565,-1.2617,-1.262,-1.2706,-1.2606,-1.259,-1.2597,-1.2593,-1.2661,-1.2668,-1.2691,-1.2805,-1.2808,-1.2709,-1.2713,-1.2715,-1.2717,0,0,0,0,0,0,0,-1.2461,-1.2474,-1.261,-1.2567,-1.2566,-1.2554,-1.2561,-1.2636,-1.2645,-1.2591,-1.2587,-1.2597,-1.266,-1.2685,-1.2692,-1.2809,-1.2708,-1.2714,-1.2718,-1.2721,-1.302,-1.3024,0,0,0,0,0,0,-1.2456,-1.247,-1.2608,-1.2612,-1.2505,-1.256,-1.2569,-1.2604,-1.2644,-1.2646,-1.26,-1.2594,-1.2675,-1.2685,-1.2695,-1.2831,-1.2715,-1.2722,-1.2725,-1.3017,-1.3021,-1.3026,0,0,0,0,0,0,-1.2452,-1.2469,-1.2604,-1.254,-1.2556,-1.2567,-1.2607,-1.2607,-1.2632,-1.265,-1.2652,-1.2623,-1.2673,-1.2686,-1.2775,-1.2833,-1.2725,-1.2731,-1.3012,-1.3018,-1.3024,-1.3103,0,0,0,0,0,0,-1.2447,-1.2468,-1.251,-1.2541,-1.256,-1.2683,-1.2611,-1.2611,-1.2643,-1.2636,-1.2673,-1.2675,-1.2671,-1.2765,-1.2781,-1.284,-1.2736,-1.3007,-1.3015,-1.3022,-1.3096,-1.3111,-1.3125,0,0,0,0,0,-1.2441,-1.253,-1.2513,-1.253,-1.2613,-1.2686,-1.2697,-1.2689,-1.2648,-1.2691,-1.2703,-1.2674,-1.2823,-1.2775,-1.2793,-1.2854,-1.3003,-1.3012,-1.3021,-1.3089,-1.3108,-1.3124,0,0,0,0,0,0,-1.2507,-1.2534,-1.2515,-1.2617,-1.265,-1.2677,-1.2732,-1.271,-1.2755,-1.2747,-1.2736,-1.2745,-1.2839,-1.2855,-1.28,-1.2966,-1.2907,-1.292,-1.2952,-1.2971,-1.2985,-1.298,-1.2741,0,0,0,0,0,-1.2533,-1.2589,-1.261,-1.2698,-1.2715,-1.2721,-1.2752,-1.2743,-1.2777,-1.2791,-1.2809,-1.2844,-1.2899,-1.2935,-1.2986,-1.3097,-1.3105,-1.3148,-1.3162,-1.3174,-1.3186,-1.3247,-1.3267,-1.3055,-1.3055,-1.3055,0,0,-1.2588,-1.261,-1.2647,-1.2712,-1.2736,-1.2796,-1.2733,-1.2798,-1.2843,-1.2801,-1.2887,-1.2901,-1.2939,-1.304,-1.3085,-1.3056,-1.3246,-1.3185,-1.3195,-1.3201,-1.3258,-1.3279,-1.3296,-1.3061,-1.306,-1.3059,0,0,-1.272,-1.2741,-1.2818,-1.2843,-1.288,-1.2883,-1.2901,-1.2932,-1.294,-1.3025,-1.2996,-1.3048,-1.3142,-1.3171,-1.3198,-1.334,-1.3316,-1.3357,-1.3434,-1.3494,-1.351,-1.3525,-1.3578,-1.3597,-1.3368,-1.3369,-1.3369,0,-1.2785,-1.2873,-1.286,-1.2928,-1.2959,-1.2922,-1.3,-1.3025,-1.3078,-1.31,-1.3066,-1.3184,-1.3207,-1.3314,-1.3349,-1.3371,-1.3393,-1.3354,-1.3509,-1.3523,-1.3537,-1.3587,-1.3607,-1.3374,-1.3373,-1.3372,-1.3372,0,-1.2951,-1.3012,-1.307,-1.3121,-1.3157,-1.323,-1.3229,-1.3268,-1.3255,-1.3262,-1.335,-1.3376,-1.3432,-1.3456,-1.3445,-1.3563,-1.3544,-1.351,-1.3451,-1.3562,-1.3609,-1.3628,-1.3381,-1.3379,-1.3377,-1.3376,0,0,-1.3129,-1.3171,-1.3193,-1.3216,-1.3253,-1.3301,-1.3372,-1.3426,-1.346,-1.3497,-1.3558,-1.3638,-1.3607,-1.3637,-1.3629,-1.368,-1.3794,-1.364,-1.3641,-1.367,-1.3927,-1.3954,-1.3977,-1.3777,-1.378,-1.3783,-1.3925,0,-1.3264,-1.3388,-1.3379,-1.3496,-1.3553,-1.3519,-1.3581,-1.3611,-1.3619,-1.367,-1.3678,-1.3736,-1.3689,-1.3707,-1.3757,-1.3769,-1.3846,-1.3759,-1.3835,-1.3838,-1.3829,-1.4001,-1.403,-1.4163,-1.3943,-1.3946,-1.3948,0,-1.3439,-1.3482,-1.3605,-1.3634,-1.3658,-1.3714,-1.3763,-1.3811,-1.3845,-1.3847,-1.3881,-1.3864,-1.3937,-1.3874,-1.3975,-1.3916,-1.3947,-1.3957,-1.3962,-1.3971,-1.3902,-1.4017,-1.4205,-1.4226,-1.3976,-1.3974,-1.3972,0,-1.356,-1.3647,-1.3732,-1.3753,-1.3789,-1.3829,-1.3846,-1.3876,-1.391,-1.3953,-1.3975,-1.4026,-1.4055,-1.4095,-1.4092,-1.4047,-1.4196,-1.4132,-1.4202,-1.4202,-1.4237,-1.4235,-1.4435,-1.4252,-1.4252,-1.4252,-1.4251,0,-1.3713,-1.3791,-1.3787,-1.384,-1.3925,-1.3913,-1.3999,-1.4011,-1.4038,-1.4094,-1.4066,-1.4119,-1.4111,-1.4164,-1.4162,-1.4248,-1.426,-1.4265,-1.4264,-1.4269,-1.4269,-1.4291,-1.4283,-1.4257,-1.4256,-1.4255,-1.4254,0,-1.3863,-1.3863,-1.3954,-1.398,-1.3989,-1.4051,-1.4074,-1.4124,-1.4129,-1.42,-1.4215,-1.4224,-1.4285,-1.4285,-1.4355,-1.4354,-1.4459,-1.4446,-1.4448,-1.4446,-1.4516,-1.451,-1.4739,-1.4769,-1.4565,-1.4566,-1.4568,0,-1.3963,-1.4021,-1.4053,-1.4088,-1.4107,-1.4163,-1.4197,-1.4188,-1.4224,-1.4267,-1.4313,-1.4371,-1.4417,-1.4517,-1.453,-1.4583,-1.4573,-1.4649,-1.4581,-1.4585,-1.4577,-1.4575,-1.4582,-1.4664,-1.4666,-1.4668,-1.4669,0,-1.414,-1.4137,-1.4186,-1.4236,-1.4277,-1.4315,-1.4351,-1.4381,-1.4376,-1.4418,-1.448,-1.4516,-1.4587,-1.4646,-1.4697,-1.4716,-1.4693,-1.469,-1.4709,-1.4716,-1.4716,-1.4719,-1.4487,-1.4686,-1.4684,-1.4683,-1.4682,-1.4681,-1.4269,-1.432,-1.4351,-1.4407,-1.4432,-1.4466,-1.4515,-1.4526,-1.4576,-1.4633,-1.4624,-1.4694,-1.4726,-1.4793,-1.4816,-1.4871,-1.4845,-1.4872,-1.4879,-1.4887,-1.4896,-1.4705,-1.488,-1.488,-1.4879,-1.4879,-1.4878,0,-1.4447,-1.4465,-1.4516,-1.4567,-1.4611,-1.4583,-1.4621,-1.4661,-1.4722,-1.4753,-1.4799,-1.4871,-1.4928,-1.4945,-1.5,-1.5041,-1.5032,-1.5056,-1.5054,-1.5059,-1.4915,-1.4894,-1.5062,-1.5062,-1.5062,-1.5062,-1.5062,-1.5062,-1.4545,-1.463,-1.463,-1.4728,-1.4745,-1.4812,-1.4837,-1.4869,-1.4894,-1.4975,-1.5022,-1.5032,-1.5058,-1.5115,-1.5166,-1.517,-1.5192,-1.5222,-1.5221,-1.5087,-1.5069,-1.5051,-1.5032,-1.5226,-1.5226,-1.5361,-1.5362,-1.5363]},{"header":{"parameterUnit":"m.s-1","parameterCategory":1,"la1":30.2991,"la2":30.254,"lo1":-89.0895,"lo2":-89.0444,"dy":0.0017,"dx":0.0017,"nx":28,"ny":28,"refTime":"2024-10-01T09:00:00:Z","depth":0,"parameterNumber":3,"parameterNumberName":"V-component_of_WINDS"},"data":[0,0,0,0,0,0,0,0,0,0,0,0,0,0,0,0,0,0,0,0,0,0,0,0,0,0,0,0,0,0,0,0,0,0,0,0,0,0,0,0,0,0,0,0,0,0,0,0,0,0,0,0,0,0,0,0,0,0,-3.4609,-3.4609,0,-3.4646,-3.4646,-3.4647,-3.4588,-3.4586,-3.4584,-3.4582,-3.4617,-3.462,-3.4623,0,0,0,0,0,0,0,0,0,0,0,0,0,-3.4483,-3.4486,-3.4609,-3.4609,-3.461,-3.4646,-3.4646,-3.4647,-3.4588,-3.4586,-3.4583,-3.4581,-3.4616,-3.4619,-3.4623,0,0,0,0,0,0,0,0,0,0,0,0,0,-3.4531,-3.4487,-3.4609,-3.4585,-3.4583,-3.4646,-3.4646,-3.4647,-3.4589,-3.4586,-3.4583,-3.458,-3.4615,-3.4619,-3.4623,-3.471,0,0,-3.4636,-3.4638,0,0,0,0,0,0,0,0,-3.4528,-3.4536,-3.4588,-3.4587,-3.4585,-3.4609,-3.4615,-3.4668,-3.459,-3.4587,-3.4582,-3.4578,-3.4617,-3.4621,-3.4634,-3.4712,-3.4713,-3.4637,-3.4639,-3.4641,-3.4642,0,0,0,0,0,0,0,-3.4525,-3.4534,-3.4623,-3.4589,-3.4587,-3.4571,-3.4575,-3.4625,-3.4618,-3.4587,-3.4582,-3.4588,-3.4615,-3.463,-3.4635,-3.4714,-3.4636,-3.464,-3.4643,-3.4644,-3.4863,-3.4866,0,0,0,0,0,0,-3.4525,-3.4531,-3.4622,-3.4625,-3.4549,-3.4576,-3.458,-3.4604,-3.4617,-3.4617,-3.459,-3.4585,-3.4624,-3.463,-3.4636,-3.4737,-3.4641,-3.4645,-3.4647,-3.4859,-3.4863,-3.4867,0,0,0,0,0,0,-3.4523,-3.4534,-3.4621,-3.4577,-3.4587,-3.4581,-3.461,-3.4607,-3.4622,-3.462,-3.4618,-3.4607,-3.4622,-3.463,-3.4692,-3.4738,-3.4647,-3.4651,-3.4856,-3.4861,-3.4865,-3.4942,0,0,0,0,0,0,-3.4519,-3.4533,-3.4567,-3.4578,-3.4589,-3.4678,-3.4612,-3.461,-3.463,-3.4623,-3.4636,-3.4635,-3.462,-3.4686,-3.4696,-3.4742,-3.4654,-3.4851,-3.4858,-3.4864,-3.4935,-3.4949,-3.496,0,0,0,0,0,-3.4515,-3.4587,-3.4569,-3.4581,-3.4632,-3.4681,-3.4687,-3.467,-3.4634,-3.4667,-3.4666,-3.4634,-3.4731,-3.4693,-3.4704,-3.4751,-3.4848,-3.4856,-3.4863,-3.4929,-3.4946,-3.496,0,0,0,0,0,0,-3.4581,-3.4588,-3.4568,-3.4646,-3.4663,-3.4671,-3.4712,-3.4688,-3.4715,-3.4708,-3.4684,-3.4688,-3.4755,-3.4759,-3.4716,-3.4835,-3.4783,-3.4793,-3.483,-3.4846,-3.4858,-3.4855,-3.4657,0,0,0,0,0,-3.4604,-3.4645,-3.4648,-3.4716,-3.4726,-3.4718,-3.4738,-3.4724,-3.474,-3.4747,-3.475,-3.4767,-3.48,-3.4823,-3.4854,-3.4935,-3.4937,-3.4973,-3.4986,-3.4996,-3.5005,-3.5047,-3.5063,-3.4891,-3.4891,-3.4891,0,0,-3.4653,-3.4662,-3.4689,-3.473,-3.4741,-3.4782,-3.4724,-3.477,-3.48,-3.4754,-3.4813,-3.4816,-3.4832,-3.4904,-3.4936,-3.491,-3.5053,-3.5006,-3.5014,-3.5017,-3.5056,-3.5073,-3.5087,-3.4896,-3.4895,-3.4894,0,0,-3.4763,-3.4775,-3.4832,-3.4845,-3.4864,-3.4858,-3.4871,-3.4882,-3.4883,-3.4942,-3.4908,-3.4942,-3.5002,-3.5014,-3.5029,-3.5143,-3.5115,-3.5154,-3.5219,-3.5261,-3.5274,-3.5286,-3.5326,-3.5341,-3.5162,-3.5163,-3.5163,0,-3.4821,-3.4883,-3.4864,-3.4913,-3.4931,-3.4892,-3.4949,-3.4962,-3.499,-3.5003,-3.4974,-3.5047,-3.5055,-3.5129,-3.5157,-3.517,-3.5184,-3.5152,-3.5274,-3.5286,-3.5296,-3.5334,-3.535,-3.5167,-3.5167,-3.5166,-3.5166,0,-3.4953,-3.4996,-3.504,-3.5069,-3.5092,-3.5145,-3.5133,-3.5159,-3.5142,-3.5139,-3.5198,-3.5207,-3.5239,-3.5255,-3.5239,-3.5327,-3.531,-3.5278,-3.5225,-3.5318,-3.5353,-3.5367,-3.5174,-3.5172,-3.5171,-3.517,0,0,-3.5106,-3.5123,-3.514,-3.5152,-3.5169,-3.5201,-3.5251,-3.5284,-3.5306,-3.5326,-3.5366,-3.5417,-3.5387,-3.5403,-3.5388,-3.5425,-3.5514,-3.5388,-3.5388,-3.541,-3.561,-3.5634,-3.5651,-3.5495,-3.5498,-3.55,-3.5608,0,-3.5215,-3.5303,-3.5287,-3.5372,-3.5411,-3.5374,-3.5418,-3.5432,-3.543,-3.5462,-3.5459,-3.5495,-3.5454,-3.5463,-3.5497,-3.5496,-3.5553,-3.5488,-3.5532,-3.5534,-3.5529,-3.5669,-3.5695,-3.5797,-3.5622,-3.5624,-3.5626,0,-3.5354,-3.538,-3.547,-3.548,-3.5496,-3.5536,-3.5563,-3.5594,-3.561,-3.5605,-3.5624,-3.5601,-3.565,-3.5597,-3.5663,-3.5619,-3.5636,-3.5637,-3.5641,-3.5644,-3.5585,-3.5676,-3.5829,-3.5844,-3.5647,-3.5646,-3.5644,0,-3.5456,-3.5513,-3.5574,-3.5585,-3.5599,-3.5628,-3.5635,-3.5647,-3.5667,-3.5691,-3.5703,-3.5732,-3.5748,-3.577,-3.5756,-3.5719,-3.5824,-3.577,-3.5821,-3.5821,-3.5845,-3.5843,-3.6002,-3.5856,-3.5856,-3.5856,-3.5856,0,-3.558,-3.5635,-3.562,-3.5657,-3.5718,-3.5699,-3.5759,-3.5762,-3.5773,-3.5809,-3.5778,-3.5812,-3.5791,-3.5824,-3.5813,-3.5868,-3.5876,-3.5873,-3.5869,-3.5876,-3.5876,-3.5886,-3.5879,-3.586,-3.5859,-3.5858,-3.5858,0,-3.5704,-3.5696,-3.5759,-3.5767,-3.577,-3.5815,-3.5821,-3.5855,-3.585,-3.5896,-3.5906,-3.5899,-3.5935,-3.5923,-3.5962,-3.5954,-3.6025,-3.6012,-3.602,-3.6017,-3.6069,-3.6064,-3.6239,-3.6261,-3.6102,-3.6103,-3.6105,0,-3.5783,-3.5825,-3.5838,-3.586,-3.587,-3.5906,-3.5926,-3.5909,-3.5931,-3.5951,-3.5982,-3.6016,-3.6042,-3.6102,-3.6099,-3.6128,-3.6116,-3.6175,-3.612,-3.6125,-3.6116,-3.6114,-3.6117,-3.6186,-3.6188,-3.6189,-3.6191,0,-3.5924,-3.5918,-3.5949,-3.5979,-3.6004,-3.6026,-3.6046,-3.6066,-3.6049,-3.6075,-3.6112,-3.6133,-3.6172,-3.6206,-3.6232,-3.6237,-3.6211,-3.6208,-3.6221,-3.6228,-3.6231,-3.623,-3.605,-3.6204,-3.6203,-3.6202,-3.6201,-3.62,-3.6028,-3.6063,-3.6078,-3.6113,-3.6126,-3.6145,-3.6177,-3.6177,-3.6208,-3.6239,-3.6226,-3.6269,-3.6282,-3.6314,-3.6324,-3.6356,-3.6333,-3.6352,-3.6357,-3.6362,-3.6368,-3.6226,-3.6361,-3.636,-3.636,-3.6359,-3.6359,0,-3.6167,-3.6174,-3.6207,-3.6236,-3.6263,-3.6237,-3.6257,-3.6281,-3.6319,-3.6334,-3.636,-3.6403,-3.6435,-3.6435,-3.6464,-3.649,-3.6479,-3.6498,-3.6496,-3.6498,-3.6388,-3.6373,-3.6507,-3.6507,-3.6507,-3.6507,-3.6507,-3.6507,-3.6243,-3.6301,-3.6297,-3.6361,-3.6367,-3.6409,-3.6423,-3.6439,-3.6451,-3.65,-3.6527,-3.6527,-3.6535,-3.6565,-3.6593,-3.6592,-3.6604,-3.6628,-3.6623,-3.652,-3.6505,-3.6491,-3.6477,-3.6631,-3.6631,-3.673,-3.6731,-3.6732]}]]